Regional Weather Roundup
Issued by NWS

Home | Current Version | Previous Version | Graphics & Text | Print | Product List | Glossary Off
Versions: 1 2 3 4 5 6 7 8 9 10 11 12 13 14 15 16 17 18 19 20 21 22 23 24 25 26 27 28 29 30 31 32 33 34 35 36 37 38 39 40 41 42 43 44 45 46 47 48 49 50

000
ASUS43 KLSX 260559
RWRMO

WEATHER SUMMARY FOR MISSOURI
NATIONAL WEATHER SERVICE SPRINGFIELD MO
1200 AM CST WED NOV 26 2014

NOTE: "FAIR" INDICATES FEW OR NO CLOUDS BELOW 12,000 FEET WITH NO
       SIGNIFICANT WEATHER AND/OR OBSTRUCTIONS TO VISIBILITY.
       CURRENT SKY AND/OR WEATHER CONDITIONS ARE NOT AVAILABLE FOR
       CHILLICOTHE AND FARMINGTON.

MOZ001>031-035>038-043-044-053-054-260700-
...NORTHERN AND WESTERN MISSOURI...

CITY           SKY/WX    TMP DP  RH WIND       PRES   REMARKS
KANSAS CTY INT CLOUDY    39  22  50 S15       29.96F
6HR MIN TEMP:  31; 6HR MAX TEMP:  39;

KANSAS C DTWN  CLOUDY    41  20  43 S12       29.98F
6HR MIN TEMP:  38; 6HR MAX TEMP:  41;

LEE`S SUMMIT   CLOUDY    36  20  52 S10       30.00F WCI  28
6HR MIN TEMP:  35; 6HR MAX TEMP:  37;

ST JOSEPH      CLOUDY    39  23  52 S13       29.95F
6HR MIN TEMP:  34; 6HR MAX TEMP:  39;

CHILLICOTHE      N/A     34  19  54 SE10      30.03F WCI  26
6HR MIN TEMP:  30; 6HR MAX TEMP:  34;

KIRKSVILLE     MOCLDY    27  21  78 SE8       30.07F WCI  19
6HR MIN TEMP:  23; 6HR MAX TEMP:  30;


$$
MOZ066>068-077>081-088>096-101>105-260700-
...SOUTHWEST MISSOURI...

CITY           SKY/WX    TMP DP  RH WIND       PRES   REMARKS
SPRINGFIELD    MOCLDY    31  21  66 SE12      30.08F WCI  22
6HR MIN TEMP:  26; 6HR MAX TEMP:  33;

JOPLIN         MOCLDY    38  20  48 SE8       30.06F
6HR MIN TEMP:  34; 6HR MAX TEMP:  38;


$$
MOZ032>034-039>042-045>050-055>058-069>072-260700-
...CENTRAL MISSOURI...

CITY           SKY/WX    TMP DP  RH WIND       PRES   REMARKS
COLUMBIA       PTCLDY    28  17  63 SE7       30.09F WCI  21
6HR MIN TEMP:  28; 6HR MAX TEMP:  35;

JEFFERSON CITY PTCLDY    23  19  85 CALM      30.11F
6HR MIN TEMP:  23; 6HR MAX TEMP:  34;

ROLLA          PTCLDY    27  17  66 S7        30.08F WCI  19
6HR MIN TEMP:  23; 6HR MAX TEMP:  30; 6HR PCP: TRACE;

SEDALIA        MOCLDY    32  21  64 S9        30.07F WCI  24
6HR MIN TEMP:  28; 6HR MAX TEMP:  35;

WARRENSBURG    MOCLDY    32  21  64 SE7       30.04F WCI  26
OSAGE BEACH    PTCLDY    28  18  64 SE5       30.09F WCI  23

$$
MOZ051-052-059>065-260700-
...EAST CENTRAL MISSOURI...

CITY           SKY/WX    TMP DP  RH WIND       PRES   REMARKS
ST LOUIS INTL  PTCLDY    28  22  78 E6        30.15F WCI  22
6HR MIN TEMP:  27; 6HR MAX TEMP:  38;

SPIRIT OF STL  CLEAR     24  21  88 CALM      30.14F
6HR MIN TEMP:  23; 6HR MAX TEMP:  31;

ST CHARLES     CLEAR     28  25  88 E6        30.15F WCI  22
6HR MIN TEMP:  27; 6HR MAX TEMP:  32;


$$
MOZ072>076-082>087-097>100-106>115-260700-
...SOUTH CENTRAL AND SOUTHEAST MISSOURI...

CITY           SKY/WX    TMP DP  RH WIND       PRES   REMARKS
CAPE GIRARDEAU CLEAR     27  25  92 E5        30.17F WCI  22
6HR MIN TEMP:  26; 6HR MAX TEMP:  37;

FARMINGTON     CLEAR     23  21  93 CALM      30.15F
6HR MIN TEMP:  23; 6HR MAX TEMP:  36;

POPLAR BLUFF   CLEAR     26  22  84 CALM      30.16F
6HR MIN TEMP:  26; 6HR MAX TEMP:  39;

WEST PLAINS    CLEAR     25  18  74 CALM      30.12F
6HR MIN TEMP:  24; 6HR MAX TEMP:  33;


$$


USA.gov is the U.S. government's official web portal to all federal, state and local government web resources and services.